Vertical_Velocity
3 2 -1 -3 -2 -6 4 12 1 -6 -5 4 13 2 6 4 -7 3 5 7 2 2 -1 0 1 2 2 1 1 2 -1 1 0 -0 1 1 0 0 -0 -0 0 -1 -0 0 -2 -1 -2 -2 -1
2 -1 -3 -6 -12 -6 8 7 5 2 -2 -4 11 2 -3 -1 -5 2 3 2 -3 -0 -1 1 0 -0 4 3 2 2 2 1 1 1 1 1 -1 -0 1 0 -0 0 -0 1 -0 -0 -1 -1 -2
1 2 -5 -11 -7 -13 10 6 4 1 -6 0 -3 -3 3 11 2 -2 -6 2 2 0 1 -0 2 -1 3 2 1 1 2 2 1 1 2 1 0 0 -1 -0 -1 1 0 -0 -1 -1 -1 -1 -2
-1 -3 -4 -17 -5 6 4 3 6 1 -3 1 11 -7 -2 2 7 5 -1 -1 -0 2 0 2 -0 -0 -2 2 1 1 1 0 1 0 0 -1 0 -0 0 -0 -0 1 0 -0 0 -2 -1 -0 -1
2 -4 -10 -12 7 6 -2 5 1 -1 -0 5 -2 3 2 3 -2 4 3 -8 -0 1 -0 5 2 3 -1 -0 -1 1 1 0 1 2 1 1 -0 2 1 1 0 0 1 1 -1 -1 -1 -1 -1
-4 -0 -13 -8 10 9 1 3 8 -2 -1 8 -6 -3 -0 -4 -5 -4 2 -0 2 0 3 3 3 4 4 5 2 3 2 0 0 1 1 1 1 2 1 -0 0 -0 2 1 1 0 -0 -0 -1
1 -3 2 -1 4 -4 2 11 -9 -3 1 2 10 2 -4 3 5 -5 7 1 2 8 -0 1 2 -4 -2 -1 -0 0 1 1 -1 -1 0 1 1 1 1 1 0 -0 -2 -2 2 -1 -1 -1 -1
4 -12 -6 8 7 -2 9 -5 -7 -2 3 -1 2 -9 8 4 6 1 0 -2 -10 1 11 1 5 -1 -2 5 1 -0 -2 -0 -1 -1 1 1 1 1 -0 0 -1 0 1 1 -0 -0 1 -0 -1
0 -14 -2 22 2 12 21 -2 -14 1 0 -3 13 1 13 -3 0 -1 -0 -3 6 8 8 2 4 12 2 -3 2 1 -1 -2 1 1 1 2 3 2 -0 0 0 -0 1 0 0 -0 -0 1 1
-5 -1 11 15 9 -12 6 -3 -14 -1 4 -3 0 -4 1 -1 3 -1 -1 -5 -4 7 -2 15 -1 -10 27 3 -1 -1 -0 1 2 1 1 3 -1 -1 1 1 -0 2 1 0 -0 -0 -2 -1 -1
-2 2 9 7 -11 7 -0 7 -6 9 11 7 -7 -8 -5 2 2 -1 -0 -2 -14 -1 17 22 -5 16 -7 25 18 2 1 -2 -0 3 3 2 0 2 1 0 1 -1 0 2 1 -0 1 -0 -1
-5 4 3 10 -1 10 -4 6 3 -2 -5 -2 2 12 -3 4 4 -0 -6 3 -6 -4 6 10 1 12 0 -3 8 2 -1 4 1 -1 1 1 1 1 2 3 1 0 -1 -1 1 1 1 -0 -1
-1 4 -3 1 2 10 5 -3 -1 3 -17 -4 8 8 -0 1 -0 3 -2 6 3 -7 8 -2 1 2 22 9 1 -4 0 2 -4 0 -0 -1 1 1 2 2 0 -3 -3 -1 2 3 1 0 0
2 3 -2 1 -0 -0 5 2 -8 6 1 0 3 3 2 2 -3 -2 4 1 -5 -2 -3 -0 -6 10 10 2 10 2 -1 -10 56 3 -4 -4 3 -1 -1 1 5 2 1 -1 2 3 3 -0 -1
-0 4 3 -13 14 -3 2 0 0 -0 -4 -3 0 4 0 -0 0 1 2 -2 2 2 -9 -4 0 1 9 -2 6 6 5 -5 -2 6 25 7 -1 -1 2 3 -2 17 3 3 1 4 8 7 0
2 -3 -0 4 3 -1 3 11 -12 9 6 -2 -6 3 3 2 -2 -0 3 -1 3 2 -2 2 -3 1 5 -2 5 1 65 5 -3 3 3 6 7 4 5 3 4 -0 0 6 1 2 -2 6 -1
-1 5 5 -8 3 -3 0 7 2 3 4 -2 -2 2 -1 1 -2 2 3 0 3 -3 -0 -0 -2 -1 -3 -3 -1 2 3 1 11 6 -4 5 -6 4 -2 -1 4 -6 3 1 1 -3 -1 2 -0
7 1 -1 -7 -2 -2 3 -1 3 4 4 -5 -1 -3 -2 -1 -0 -0 -2 -2 3 2 -0 -3 2 3 -4 -7 -4 -6 -9 -2 1 3 -2 -1 -4 0 2 -2 5 2 -2 -1 -1 -4 -5 -1 1
6 3 9 -12 -0 5 5 4 -9 -19 -5 -5 2 1 3 -1 -3 6 -1 -0 1 0 2 -2 -0 -0 2 1 -1 2 -2 -0 -4 -4 -8 -0 -2 -0 -4 -2 -2 2 -0 2 1 -2 -1 -4 -1
1 0 7 -8 2 2 -0 8 -5 0 6 -1 -6 -7 -4 -2 1 -0 4 -1 1 1 1 1 2 -1 -0 4 2 1 -4 -3 0 1 -6 -1 1 -3 -4 -3 -1 3 0 2 -1 -0 -2 1 -0
4 1 2 -3 9 5 5 -1 4 -4 0 3 -2 -2 -1 -3 2 -2 6 1 -2 3 5 4 2 1 -1 -3 4 2 -1 -2 6 0 -3 2 1 3 0 -1 -1 1 1 -3 2 1 -0 -3 0
-3 6 4 -0 1 -3 5 6 -10 4 -3 -1 -0 -3 1 -1 -3 0 -0 7 5 0 1 5 2 0 2 0 2 -3 3 2 0 -1 0 2 3 -0 1 -3 0 0 4 0 -1 -1 2 2 -2
5 3 3 2 -1 4 1 6 -16 -4 3 1 0 1 -0 1 -0 -3 9 -6 8 2 4 -1 2 5 1 1 0 1 -2 0 1 1 1 1 3 -0 2 1 0 0 1 4 -0 -0 1 4 1
0 -0 1 2 -2 -12 8 7 -8 -5 3 2 -1 1 0 1 1 -1 1 3 -3 4 1 -2 3 2 4 5 3 3 -0 1 -1 -1 1 -1 1 3 -0 0 -2 0 -0 5 1 1 -1 2 0
3 4 -1 -5 -6 -7 8 1 -5 -5 0 -0 0 1 2 0 2 -1 2 2 -2 -3 2 4 -1 0 0 2 3 3 1 3 1 2 -1 1 -1 1 1 -1 -1 -1 -0 1 1 -2 -1 1 1
0 3 3 2 -4 -7 5 -15 -8 -6 2 -1 0 -1 2 3 2 1 -2 8 1 -1 2 -2 7 3 2 -1 -4 1 3 2 3 3 4 1 1 -0 1 -1 -1 -0 -1 1 -1 1 1 -0 0
2 -1 5 4 5 4 -0 -3 3 0 1 1 1 1 0 1 4 0 -3 12 -3 3 2 1 -1 -3 3 4 -1 0 0 -1 2 2 3 0 1 1 1 1 -0 -0 -1 2 -0 -1 0 -2 -1
1 3 0 1 -1 3 -5 -2 -8 4 3 1 1 -1 -1 2 1 2 -0 9 -2 2 -1 -1 -3 -2 -3 -4 1 5 2 1 2 0 -1 1 1 2 2 1 1 3 1 -1 -0 1 -1 -1 -0
2 -1 3 3 1 2 -6 -9 2 1 2 -1 1 -0 -1 -1 0 1 0 7 0 3 0 -1 0 1 1 1 1 -2 0 3 3 0 2 2 3 3 2 2 2 1 1 1 -0 1 0 0 0
1 2 2 -0 -1 -2 -3 -6 1 2 2 -1 -0 1 1 -2 -0 1 -1 1 1 1 1 4 3 -1 -0 1 1 1 3 3 2 1 3 2 0 -0 -1 -1 1 1 0 -2 -0 2 2 -3 1
Height
5743 5744 5746 5750 5755 5756 5759 5765 5764 5764 5765 5771 5775 5777 5781 5786 5787 5797 5802 5808 5810 5814 5817 5820 5824 5828 5831 5834 5837 5840 5843 5846 5849 5850 5852 5855 5856 5857 5859 5861 5862 5864 5865 5866 5867 5867 5868 5868 5868
5735 5737 5739 5741 5748 5751 5756 5756 5758 5759 5760 5763 5766 5770 5772 5780 5783 5788 5795 5800 5802 5809 5812 5816 5820 5824 5827 5830 5833 5837 5839 5843 5846 5848 5850 5853 5854 5856 5857 5859 5860 5863 5864 5865 5866 5866 5867 5868 5869
5727 5728 5731 5733 5740 5749 5750 5749 5750 5752 5750 5756 5760 5764 5767 5775 5777 5781 5786 5794 5796 5802 5805 5810 5815 5819 5822 5826 5829 5833 5836 5838 5842 5845 5848 5850 5851 5853 5854 5856 5858 5861 5862 5863 5864 5866 5867 5868 5869
5718 5718 5721 5726 5735 5743 5739 5740 5744 5744 5745 5750 5756 5757 5762 5765 5770 5775 5779 5785 5788 5793 5797 5802 5809 5814 5818 5823 5826 5829 5832 5835 5837 5840 5844 5846 5849 5850 5852 5854 5856 5859 5860 5861 5862 5864 5865 5866 5867
5709 5709 5711 5718 5730 5730 5730 5733 5735 5737 5741 5747 5747 5752 5757 5760 5762 5768 5774 5776 5782 5785 5790 5798 5804 5809 5814 5819 5823 5826 5828 5830 5833 5836 5840 5844 5845 5848 5850 5852 5854 5857 5859 5859 5860 5861 5863 5864 5866
5701 5700 5704 5710 5718 5719 5722 5725 5725 5728 5732 5737 5740 5744 5749 5753 5756 5760 5767 5770 5777 5781 5786 5792 5798 5805 5811 5815 5817 5821 5823 5826 5828 5832 5835 5839 5842 5845 5848 5850 5852 5854 5856 5858 5858 5860 5860 5861 5863
5692 5691 5697 5702 5708 5707 5715 5715 5715 5718 5723 5729 5733 5737 5742 5747 5749 5753 5761 5763 5770 5776 5780 5784 5790 5795 5799 5804 5809 5815 5816 5820 5824 5826 5830 5835 5838 5842 5845 5846 5848 5850 5852 5854 5856 5857 5859 5859 5860
5683 5682 5686 5695 5695 5700 5703 5700 5706 5709 5713 5719 5725 5730 5737 5738 5742 5744 5751 5753 5761 5770 5772 5778 5784 5787 5792 5796 5801 5806 5810 5813 5817 5822 5826 5830 5834 5837 5840 5842 5844 5847 5849 5851 5852 5854 5856 5857 5858
5671 5672 5679 5684 5683 5692 5689 5691 5697 5704 5707 5711 5718 5722 5728 5729 5733 5737 5745 5747 5757 5761 5768 5770 5777 5784 5787 5790 5795 5800 5804 5808 5811 5816 5821 5826 5829 5832 5833 5837 5841 5843 5845 5847 5849 5851 5853 5854 5855
5660 5663 5671 5673 5674 5674 5681 5684 5688 5695 5700 5702 5708 5710 5719 5723 5726 5729 5734 5739 5743 5753 5760 5762 5768 5772 5781 5786 5787 5792 5797 5801 5805 5809 5816 5820 5822 5826 5829 5833 5837 5839 5841 5843 5845 5848 5849 5850 5852
5651 5656 5660 5661 5661 5669 5669 5676 5679 5686 5690 5693 5696 5702 5708 5713 5718 5720 5725 5730 5735 5742 5752 5757 5759 5766 5769 5771 5780 5784 5789 5794 5798 5803 5808 5813 5817 5820 5824 5827 5831 5833 5836 5839 5840 5843 5846 5846 5848
5639 5645 5647 5649 5652 5658 5659 5666 5669 5675 5677 5682 5691 5695 5697 5704 5708 5712 5717 5722 5730 5735 5740 5746 5753 5756 5760 5766 5770 5776 5782 5787 5791 5795 5800 5805 5810 5814 5818 5821 5825 5828 5830 5833 5836 5838 5840 5843 5845
5628 5634 5636 5638 5642 5648 5652 5654 5657 5663 5669 5673 5679 5682 5687 5694 5698 5703 5710 5715 5720 5724 5730 5737 5742 5747 5752 5758 5763 5768 5775 5780 5784 5789 5792 5797 5801 5805 5810 5814 5818 5821 5824 5828 5831 5833 5834 5836 5839
5619 5624 5626 5629 5634 5637 5642 5645 5647 5653 5660 5663 5665 5670 5676 5684 5689 5695 5702 5707 5712 5718 5722 5726 5727 5736 5743 5748 5754 5759 5766 5775 5775 5780 5785 5789 5792 5798 5802 5806 5811 5815 5818 5821 5824 5826 5829 5831 5833
5609 5614 5614 5616 5625 5626 5630 5633 5640 5643 5647 5652 5654 5659 5664 5672 5680 5687 5692 5696 5703 5707 5711 5717 5720 5724 5730 5737 5744 5751 5756 5763 5769 5773 5773 5779 5783 5788 5793 5798 5803 5805 5811 5815 5817 5820 5822 5824 5827
5599 5602 5606 5611 5612 5619 5620 5627 5628 5636 5637 5641 5644 5649 5654 5660 5668 5677 5682 5688 5694 5699 5704 5708 5712 5718 5722 5727 5733 5740 5745 5753 5759 5763 5766 5771 5776 5781 5785 5789 5792 5797 5802 5806 5809 5812 5816 5818 5820
5590 5595 5597 5599 5602 5607 5612 5617 5620 5624 5628 5631 5636 5640 5644 5650 5657 5666 5672 5678 5683 5689 5696 5700 5705 5709 5714 5718 5723 5729 5733 5742 5742 5750 5755 5759 5766 5771 5776 5780 5785 5788 5792 5796 5800 5803 5807 5811 5815
5583 5586 5587 5587 5593 5597 5603 5605 5609 5613 5617 5620 5626 5629 5633 5639 5645 5654 5661 5667 5673 5679 5685 5691 5696 5701 5706 5709 5715 5720 5725 5730 5736 5741 5746 5752 5758 5764 5769 5772 5777 5782 5787 5789 5791 5796 5801 5805 5808
5575 5577 5580 5576 5583 5588 5594 5594 5593 5600 5608 5611 5616 5619 5622 5628 5634 5642 5649 5656 5662 5668 5674 5680 5686 5691 5697 5703 5708 5714 5718 5724 5728 5733 5738 5743 5749 5755 5759 5765 5769 5773 5778 5781 5785 5789 5794 5797 5800
5564 5567 5571 5569 5575 5578 5582 5583 5586 5592 5599 5602 5605 5609 5612 5618 5625 5630 5638 5644 5650 5656 5662 5669 5674 5680 5687 5692 5697 5703 5709 5715 5721 5726 5731 5737 5741 5746 5751 5756 5761 5765 5769 5773 5778 5782 5785 5788 5792
5555 5558 5561 5562 5568 5571 5571 5573 5577 5581 5586 5591 5595 5600 5603 5606 5614 5621 5627 5632 5639 5645 5650 5657 5663 5669 5675 5681 5687 5692 5699 5706 5711 5717 5722 5727 5732 5736 5741 5747 5751 5755 5760 5764 5768 5772 5776 5779 5782
5545 5550 5553 5554 5559 5561 5564 5564 5566 5572 5576 5580 5584 5590 5594 5596 5601 5609 5616 5619 5627 5632 5639 5644 5650 5657 5663 5670 5675 5682 5688 5694 5699 5705 5711 5716 5721 5727 5731 5736 5741 5745 5749 5753 5757 5761 5765 5769 5772
5538 5541 5543 5545 5548 5551 5555 5555 5556 5561 5567 5571 5574 5579 5583 5586 5589 5595 5605 5608 5611 5620 5626 5631 5638 5644 5651 5657 5663 5670 5676 5682 5688 5694 5700 5705 5711 5716 5721 5726 5731 5735 5739 5743 5747 5751 5755 5758 5762
5529 5532 5535 5536 5538 5539 5547 5547 5546 5552 5559 5561 5564 5568 5572 5576 5579 5582 5590 5595 5600 5605 5611 5618 5625 5630 5637 5644 5651 5658 5663 5670 5676 5683 5688 5694 5699 5704 5710 5715 5720 5724 5729 5733 5737 5741 5745 5748 5752
5519 5522 5524 5526 5527 5530 5536 5536 5538 5542 5547 5550 5554 5557 5561 5565 5568 5571 5578 5582 5587 5593 5597 5605 5610 5616 5622 5629 5636 5643 5650 5657 5663 5669 5676 5682 5687 5691 5697 5702 5707 5712 5717 5722 5725 5730 5734 5738 5742
5508 5512 5515 5516 5517 5519 5523 5523 5526 5532 5536 5540 5543 5546 5550 5553 5556 5559 5566 5571 5574 5580 5585 5590 5596 5603 5609 5614 5621 5628 5635 5642 5648 5654 5661 5667 5672 5678 5683 5689 5694 5699 5704 5709 5713 5718 5722 5726 5730
5498 5501 5505 5508 5510 5511 5512 5514 5517 5522 5526 5529 5532 5536 5539 5542 5545 5548 5554 5558 5560 5567 5571 5575 5580 5587 5594 5601 5608 5613 5618 5624 5631 5638 5644 5651 5657 5663 5668 5674 5680 5684 5689 5694 5699 5704 5708 5712 5717
5487 5491 5494 5496 5500 5502 5502 5504 5508 5513 5515 5517 5520 5524 5528 5532 5534 5537 5541 5544 5548 5553 5557 5562 5568 5574 5580 5586 5592 5598 5604 5610 5616 5622 5627 5634 5640 5646 5652 5657 5663 5668 5673 5678 5684 5689 5693 5697 5702
5480 5481 5484 5487 5490 5491 5493 5494 5498 5501 5504 5506 5509 5512 5515 5519 5523 5526 5529 5531 5535 5539 5544 5549 5555 5561 5567 5572 5577 5583 5588 5594 5600 5606 5612 5618 5624 5629 5635 5641 5646 5651 5656 5661 5667 5672 5676 5680 5685
5471 5473 5475 5477 5480 5481 5483 5486 5486 5489 5491 5495 5498 5501 5503 5507 5510 5513 5517 5520 5523 5526 5530 5535 5540 5546 5552 5557 5562 5567 5572 5577 5583 5589 5595 5600 5606 5612 5617 5623 5629 5634 5639 5644 5649 5654 5658 5663 5667